Weather in Pavlovo

Russia / Tomsk District     58°59′54″N   80°54′50″E
temp.,
°C
wind,
m/s
gust,
m/s
humid.,
%
clouds,
%
prec.,
mm/h
press.,
hPa
HPBL,
m
18 may, tue
tue1801:00+11ese5892100 0.8 1005165
04:00+10e3597100 2.0 1005203
07:00+9ene5894100 2.6 1006461
10:00+9ne5892100 0.4 1008483
13:00+9ne5788100 0.4 1010469
16:00+10ene247597 0.0 1011403
19:00+12nne356098 0.0 1011587
22:00+9nnw6106374 0.0 1011173
19 may, wed
wed1901:00+5nne6114992 0.0 1014257
04:00+4nne6105232 0.0 1015303
07:00+4nne59545 0.0 1016372
10:00+7nne68365 0.0 10171592
13:00+10n7929100 0.0 10172687
16:00+11nnw8927100 0.0 10162921
19:00+10n892780 0.0 10162576
22:00+6n711365 0.0 1017386
20 may, thu
thu2001:00+3nne484773 0.0 1018185
04:00+1n59535 0.0 1019227
07:00+1n69510 0.0 1020437
10:00+5n56385 0.0 10211662
13:00+7n453281 0.0 10202091
16:00+10nnw452939 0.0 10202198
19:00+10nnw3429100 0.0 10202082
22:00+7wnw2241100 0.0 102119
21 may, fri
fri2101:00+5wnw3350100 0.0 102147
04:00+5w2248100 0.0 102219
07:00+6wsw2450100 0.0 1022133
10:00+10wsw3436100 0.0 1022902
13:00+12wsw453096 0.0 10211744
16:00+15wsw5630100 0.0 10192204
19:00+10wnw7765100 0.1 1020852
22:00+8ssw4685100 0.9 1019349
22 may, sat
sat2201:00+8ssw3890100 1.3 1017335
04:00+8s3496100 1.2 1015181
07:00+9sse1295100 1.2 1016104
10:00+11e3286100 0.0 1016424
13:00+14e227551 0.0 1017608
16:00+17ene235962 0.0 10171215
19:00+18e2255100 0.0 1018913
22:00+13se477578 0.0 1019116